Home > Weather > Tuscaloosa > Past weeks

Flag for USA Weather for the Past 2 Weeks in Tuscaloosa, Alabama, USA

Now
59 °F

Overcast.


Feels Like: 59 °F
Forecast: 51 / 74 °F
Wind: 5 mph from North

Location: Tuscaloosa Municipal Airport

Current Time: May 4, 2016 at 3:04:04 AM

Latest Report: May 4, 2016 at 1:53 AM


Visibility: 10 mi

Pressure: 29.92 "Hg

Humidity: 78%

Dew Point: 52 °F

Location of TuscaloosaLocation

Historic Weather in Tuscaloosa — Graph

°F

Tuscaloosa Temperature Yesterday

Maximum temperature yesterday: 74 °F (at 2:53 PM)
Minimum temperature yesterday: 60 °F (at 11:53 PM)
Average temperature yesterday: 67 °F

High & Low Weather Summary for the Past Weeks

 TemperatureHumidityPressure
High86 °F (Apr 29, 1:53 PM)100% (Apr 22, 4:53 AM)30.25 "Hg (Apr 22, 4:53 AM)
Low48 °F (Apr 19, 5:53 AM)33% (Apr 19, 1:53 PM)29.77 "Hg (Apr 27, 4:53 PM)
Average69 °F80%29.96 "Hg
* Reported Apr 19 12:53 AM — May 4 12:53 AM, Tuscaloosa, Weather by CustomWeather, © 2016

Note: Actual official high and low records may vary slightly from our data, if they occured in-between our weather recording intervals... More about our weather records

Advertising

Tuscaloosa Weather History for the Previous 24 Hours

Scroll right to see more
 ConditionsComfort  
Time TempWeatherWind HumidityBarometerVisibility
12:53 AM
Wed, May 4
58 °FPassing clouds.7 mph84%29.93 "Hg10 mi
11:53 PM
Tue, May 3
60 °FPassing clouds.5 mph75%29.93 "Hg10 mi
10:53 PM61 °FClear.6 mph72%29.93 "Hg10 mi
9:53 PM62 °FPassing clouds.6 mph73%29.92 "Hg10 mi
8:53 PM65 °FPassing clouds.3 mph68%29.91 "Hg10 mi
7:53 PM67 °FOvercast.5 mph61%29.90 "Hg10 mi
6:53 PM70 °FPartly sunny.3 mph55%29.89 "Hg10 mi
5:53 PM71 °FPartly sunny.7 mph51%29.88 "Hg10 mi
4:53 PM74 °FPassing clouds.8 mph46%29.88 "Hg10 mi
3:53 PM72 °FPartly sunny.12 mph52%29.89 "Hg10 mi
2:53 PM74 °FBroken clouds.7 mph52%29.92 "Hg10 mi
1:53 PM72 °FOvercast.7 mph55%29.94 "Hg10 mi
12:53 PM73 °FPartly sunny.10 mph57%29.95 "Hg10 mi
11:53 AM71 °FMore clouds than sun.8 mph57%29.96 "Hg10 mi
10:53 AM70 °FScattered clouds.6 mph61%29.97 "Hg10 mi
9:53 AM68 °FPassing clouds.7 mph73%29.98 "Hg10 mi
8:53 AM65 °FOvercast.5 mph85%29.97 "Hg10 mi
7:53 AM63 °FOvercast.8 mph93%29.96 "Hg10 mi
6:53 AM63 °FOvercast.7 mph93%29.96 "Hg10 mi
5:53 AM63 °FOvercast.6 mph97%29.93 "Hg10 mi
4:53 AM63 °FOvercast.3 mph97%29.92 "Hg10 mi
3:53 AM64 °FLow clouds.3 mph100%29.91 "Hg10 mi
3:01 AM64 °FMostly cloudy.5 mph100%29.93 "Hg10 mi
Weather by CustomWeather, © 2016

See weather overviewHow to use our weather pages